TimeEST,TemperatureF,Dew PointF,Humidity,Sea Level PressureIn,VisibilityMPH,Wind Direction,Wind SpeedMPH,Gust SpeedMPH,PrecipitationIn,Events,Conditions,WindDirDegrees,DateUTC
12:15 AM,42.8,26.6,53,29.94,10.0,South,13.8,23.0,N/A,,Mostly Cloudy,170,2013-02-19 05:15:00
12:35 AM,42.8,26.6,53,29.93,10.0,SSE,17.3,26.5,N/A,,Scattered Clouds,160,2013-02-19 05:35:00
12:55 AM,42.8,26.6,53,29.94,10.0,SSE,13.8,24.2,N/A,,Clear,160,2013-02-19 05:55:00
1:15 AM,41.0,26.6,57,29.91,10.0,SSE,17.3,26.5,N/A,,Clear,160,2013-02-19 06:15:00
1:35 AM,41.0,26.6,57,29.90,10.0,SSE,15.0,20.7,N/A,,Clear,160,2013-02-19 06:35:00
1:55 AM,41.0,26.6,57,29.90,10.0,South,9.2,-,N/A,,Mostly Cloudy,170,2013-02-19 06:55:00
2:15 AM,41.0,26.6,57,29.90,10.0,South,6.9,16.1,N/A,,Overcast,170,2013-02-19 07:15:00
2:35 AM,41.0,26.6,57,29.91,10.0,South,6.9,-,N/A,,Overcast,180,2013-02-19 07:35:00
2:55 AM,41.0,26.6,57,29.94,10.0,SSW,12.7,-,N/A,,Overcast,200,2013-02-19 07:55:00
3:15 AM,37.4,32.0,81,29.94,5.0,SSW,17.3,32.2,N/A,Snow,Light Snow,210,2013-02-19 08:15:00
3:35 AM,35.6,33.8,93,29.93,3.0,SSW,15.0,21.9,N/A,Snow,Light Snow,200,2013-02-19 08:35:00
3:55 AM,35.6,33.8,93,29.93,1.0,South,13.8,23.0,N/A,Snow,Light Snow,190,2013-02-19 08:55:00
4:15 AM,33.8,33.8,100,29.92,0.5,South,12.7,19.6,N/A,Snow,Light Snow,180,2013-02-19 09:15:00
4:35 AM,33.8,33.8,100,29.92,1.0,South,13.8,-,0.01,Snow,Light Snow,190,2013-02-19 09:35:00
4:55 AM,33.8,33.8,100,29.91,1.0,South,8.1,-,0.01,Snow,Light Snow,190,2013-02-19 09:55:00
5:15 AM,33.8,33.8,100,29.91,1.2,South,10.4,-,N/A,Snow,Light Snow,190,2013-02-19 10:15:00
5:35 AM,33.8,33.8,100,29.91,1.0,South,15.0,-,N/A,Snow,Light Snow,190,2013-02-19 10:35:00
5:55 AM,33.8,33.8,100,29.91,2.0,South,10.4,16.1,N/A,Snow,Light Snow,180,2013-02-19 10:55:00
6:15 AM,33.8,33.8,100,29.89,0.5,South,12.7,-,N/A,Snow,Light Snow,170,2013-02-19 11:15:00
6:35 AM,33.8,33.8,100,29.88,3.0,South,12.7,18.4,N/A,Snow,Light Snow,170,2013-02-19 11:35:00
6:55 AM,33.8,33.8,100,29.86,2.5,South,12.7,20.7,N/A,Snow,Light Snow,170,2013-02-19 11:55:00
7:15 AM,33.8,33.8,100,29.87,5.0,South,9.2,-,N/A,Snow,Light Snow,180,2013-02-19 12:15:00
7:35 AM,33.8,33.8,100,29.87,1.0,South,10.4,18.4,N/A,Snow,Light Snow,190,2013-02-19 12:35:00
7:55 AM,33.8,33.8,100,29.87,2.5,South,9.2,-,N/A,Snow,Light Snow,190,2013-02-19 12:55:00
8:15 AM,33.8,33.8,100,29.87,4.0,South,9.2,16.1,N/A,Snow,Light Snow,190,2013-02-19 13:15:00
8:35 AM,33.8,33.8,100,29.87,3.0,SSW,9.2,-,N/A,Snow,Light Snow,200,2013-02-19 13:35:00
8:55 AM,33.8,33.8,100,29.87,3.0,South,8.1,-,N/A,Snow,Light Snow,190,2013-02-19 13:55:00
9:15 AM,33.8,33.8,100,29.87,3.0,SSW,9.2,-,N/A,Rain,Light Rain,200,2013-02-19 14:15:00
9:35 AM,35.6,35.6,100,29.87,5.0,SW,11.5,-,N/A,,Overcast,220,2013-02-19 14:35:00
9:55 AM,35.6,35.6,100,29.88,1.8,SW,16.1,21.9,N/A,,Overcast,230,2013-02-19 14:55:00
10:15 AM,35.6,35.6,100,29.87,3.0,SW,16.1,23.0,N/A,,Overcast,230,2013-02-19 15:15:00
10:35 AM,35.6,35.6,100,29.87,4.0,SW,13.8,19.6,0.01,,Overcast,230,2013-02-19 15:35:00
10:55 AM,35.6,35.6,100,29.88,0.5,WSW,15.0,-,0.01,Rain,Light Rain,240,2013-02-19 15:55:00
11:15 AM,35.6,35.6,100,29.88,3.0,WSW,15.0,-,N/A,Rain,Light Rain,240,2013-02-19 16:15:00
11:35 AM,35.6,35.6,100,29.88,2.5,WSW,15.0,20.7,N/A,,Overcast,240,2013-02-19 16:35:00
11:55 AM,37.4,37.4,100,29.87,10.0,WSW,17.3,21.9,N/A,,Overcast,240,2013-02-19 16:55:00
12:15 PM,41.0,41.0,100,29.87,10.0,WSW,18.4,24.2,N/A,,Overcast,240,2013-02-19 17:15:00
12:35 PM,42.8,42.8,100,29.86,10.0,SW,19.6,26.5,N/A,,Overcast,230,2013-02-19 17:35:00
12:55 PM,42.8,35.6,76,29.86,10.0,SW,19.6,29.9,N/A,,Scattered Clouds,230,2013-02-19 17:55:00
1:15 PM,42.8,33.8,70,29.86,10.0,SW,20.7,32.2,N/A,,Mostly Cloudy,230,2013-02-19 18:15:00
1:35 PM,42.8,32.0,66,29.85,10.0,WSW,23.0,29.9,N/A,,Overcast,240,2013-02-19 18:35:00
1:55 PM,42.8,30.2,61,29.86,10.0,West,18.4,24.2,N/A,,Overcast,260,2013-02-19 18:55:00
2:15 PM,42.8,28.4,57,29.85,10.0,West,17.3,23.0,N/A,,Mostly Cloudy,260,2013-02-19 19:15:00
2:35 PM,42.8,28.4,57,29.86,10.0,West,18.4,31.1,N/A,,Mostly Cloudy,260,2013-02-19 19:35:00
2:55 PM,41.0,26.6,57,29.86,10.0,West,12.7,27.6,N/A,,Overcast,270,2013-02-19 19:55:00
3:15 PM,42.8,26.6,53,29.86,10.0,West,16.1,27.6,N/A,,Overcast,260,2013-02-19 20:15:00
3:35 PM,41.0,23.0,49,29.87,10.0,West,19.6,27.6,N/A,,Mostly Cloudy,260,2013-02-19 20:35:00
3:55 PM,41.0,21.2,45,29.88,10.0,West,21.9,32.2,N/A,,Scattered Clouds,260,2013-02-19 20:55:00
4:15 PM,42.8,23.0,46,29.88,10.0,WSW,18.4,28.8,N/A,,Scattered Clouds,240,2013-02-19 21:15:00
4:35 PM,41.0,23.0,49,29.89,10.0,West,12.7,25.3,N/A,,Overcast,270,2013-02-19 21:35:00
4:55 PM,41.0,21.2,45,29.90,10.0,West,19.6,27.6,N/A,,Scattered Clouds,280,2013-02-19 21:55:00
5:15 PM,41.0,21.2,45,29.91,10.0,West,16.1,25.3,N/A,,Scattered Clouds,280,2013-02-19 22:15:00
5:35 PM,39.2,19.4,45,29.92,10.0,West,17.3,27.6,N/A,,Scattered Clouds,270,2013-02-19 22:35:00
5:55 PM,37.4,15.8,41,29.93,10.0,West,16.1,25.3,N/A,,Clear,270,2013-02-19 22:55:00
6:15 PM,35.6,15.8,44,29.95,10.0,West,18.4,26.5,N/A,,Clear,280,2013-02-19 23:15:00
7:35 PM,33.8,17.6,52,29.98,10.0,West,15.0,25.3,N/A,,Clear,280,2013-02-20 00:35:00
8:15 PM,33.8,17.6,52,29.98,10.0,West,9.2,21.9,N/A,,Clear,280,2013-02-20 01:15:00
8:35 PM,32.0,19.4,60,30.00,10.0,West,10.4,21.9,N/A,,Clear,280,2013-02-20 01:35:00
8:55 PM,32.0,19.4,60,30.00,10.0,West,11.5,23.0,N/A,,Clear,270,2013-02-20 01:55:00
9:15 PM,32.0,19.4,60,30.00,10.0,West,9.2,-,N/A,,Clear,270,2013-02-20 02:15:00
9:35 PM,32.0,19.4,60,30.01,10.0,West,18.4,26.5,N/A,,Scattered Clouds,280,2013-02-20 02:35:00
9:55 PM,32.0,17.6,55,30.01,10.0,West,13.8,20.7,N/A,,Clear,270,2013-02-20 02:55:00
10:15 PM,32.0,19.4,60,30.01,10.0,West,9.2,18.4,N/A,,Clear,270,2013-02-20 03:15:00
10:35 PM,32.0,19.4,60,30.02,10.0,West,16.1,25.3,N/A,,Scattered Clouds,270,2013-02-20 03:35:00
10:55 PM,32.0,17.6,55,30.02,10.0,West,16.1,20.7,N/A,,Scattered Clouds,280,2013-02-20 03:55:00
11:15 PM,32.0,17.6,55,30.02,10.0,West,20.7,28.8,N/A,,Clear,280,2013-02-20 04:15:00
11:35 PM,30.2,17.6,60,30.03,10.0,West,15.0,20.7,N/A,,Clear,270,2013-02-20 04:35:00
11:55 PM,30.2,17.6,60,30.03,10.0,West,13.8,19.6,N/A,,Clear,270,2013-02-20 04:55:00